ISR195 OSDI-LLBG

Flight info

Callsign ISR195
Flight time 0h 33m
Altitude 23000
Route BUSRA L513 LOXER/N0416F220 L200 OSAMA DCT RALNA N134 SALAM
Aircraft A320/M-SDE3FGHIRWY/LB1

Departure

Time 2026-04-22 09:35
Airport Damascus International Airport (OSDI)

Arrival

Time 2026-04-22 10:08
Airport Ben Gurion International Airport (LLBG)
Time Latitude Longitude Altitude Speed Heading
2026-04-22 09:12 33.41221 36.51463 2011 ft 0 kts 232°
2026-04-22 09:23 33.41228 36.51472 2011 ft 2 kts 232°
2026-04-22 09:23 33.41234 36.51483 2006 ft 2 kts 226°
2026-04-22 09:23 33.41247 36.51495 2007 ft 2 kts 192°
2026-04-22 09:23 33.41261 36.51496 2006 ft 2 kts 154°
2026-04-22 09:24 33.41265 36.51494 2006 ft 0 kts 142°
2026-04-22 09:26 33.41263 36.51496 2006 ft 1 kts 141°
2026-04-22 09:26 33.41253 36.51507 2007 ft 3 kts 137°
2026-04-22 09:26 33.41234 36.51528 2009 ft 5 kts 138°
2026-04-22 09:26 33.41206 36.51558 2007 ft 6 kts 134°
2026-04-22 09:27 33.41186 36.51611 2007 ft 8 kts 102°
2026-04-22 09:27 33.41182 36.51693 2011 ft 12 kts 91°
2026-04-22 09:27 33.41174 36.51804 2009 ft 15 kts 92°
2026-04-22 09:27 33.41166 36.51935 2011 ft 17 kts 105°
2026-04-22 09:28 33.41093 36.52052 2011 ft 18 kts 140°
2026-04-22 09:28 33.40986 36.52152 2010 ft 20 kts 138°
2026-04-22 09:28 33.40875 36.52269 2009 ft 22 kts 139°
2026-04-22 09:28 33.40758 36.52340 2011 ft 19 kts 199°
2026-04-22 09:29 33.40665 36.52230 2010 ft 20 kts 228°
2026-04-22 09:29 33.40570 36.52102 2012 ft 22 kts 229°
2026-04-22 09:29 33.40468 36.51964 2011 ft 23 kts 229°
2026-04-22 09:29 33.40361 36.51817 2014 ft 24 kts 229°
2026-04-22 09:30 33.40246 36.51661 2015 ft 26 kts 229°
2026-04-22 09:30 33.40124 36.51495 2013 ft 27 kts 229°
2026-04-22 09:30 33.39994 36.51324 2017 ft 29 kts 227°
2026-04-22 09:30 33.39860 36.51146 2016 ft 30 kts 229°
2026-04-22 09:31 33.39721 36.50959 2019 ft 30 kts 228°
2026-04-22 09:31 33.39579 36.50769 2018 ft 31 kts 229°
2026-04-22 09:31 33.39435 36.50574 2022 ft 32 kts 228°
2026-04-22 09:31 33.39286 36.50373 2031 ft 32 kts 229°
2026-04-22 09:32 33.39136 36.50168 2024 ft 33 kts 229°
2026-04-22 09:32 33.38981 36.49961 2026 ft 34 kts 228°
2026-04-22 09:32 33.38825 36.49755 2035 ft 34 kts 228°
2026-04-22 09:32 33.38691 36.49572 2034 ft 18 kts 228°
2026-04-22 09:33 33.38595 36.49500 2037 ft 16 kts 167°
2026-04-22 09:33 33.38568 36.49517 2031 ft 0 kts 141°
2026-04-22 09:33 33.38567 36.49518 2031 ft 1 kts 141°
2026-04-22 09:33 33.38547 36.49538 2029 ft 8 kts 141°
2026-04-22 09:34 33.38502 36.49607 2030 ft 12 kts 82°
2026-04-22 09:34 33.38562 36.49694 2029 ft 20 kts 48°
2026-04-22 09:34 33.38818 36.50037 2030 ft 89 kts 49°
2026-04-22 09:35 33.40121 36.51766 2054 ft 179 kts 47°
2026-04-22 09:35 33.40969 36.52888 2658 ft 182 kts 50°
2026-04-22 09:35 33.41456 36.54227 3341 ft 181 kts 94°
2026-04-22 09:35 33.40948 36.55563 3938 ft 184 kts 141°
2026-04-22 09:36 33.39712 36.56117 4271 ft 204 kts 181°
2026-04-22 09:36 33.38340 36.55492 4570 ft 228 kts 224°
2026-04-22 09:36 33.37472 36.53806 4935 ft 252 kts 249°
2026-04-22 09:36 33.36994 36.51713 5514 ft 267 kts 258°
2026-04-22 09:37 33.36662 36.49508 6411 ft 271 kts 259°
2026-04-22 09:37 33.35952 36.47423 7242 ft 274 kts 230°
2026-04-22 09:37 33.34394 36.46117 8058 ft 279 kts 198°
2026-04-22 09:37 33.32457 36.46006 8873 ft 285 kts 171°
2026-04-22 09:38 33.30537 36.46660 9717 ft 290 kts 162°
2026-04-22 09:38 33.28614 36.47480 10332 ft 301 kts 162°
2026-04-22 09:38 33.26590 36.48338 10554 ft 324 kts 162°
2026-04-22 09:38 33.24383 36.49251 10709 ft 347 kts 165°
2026-04-22 09:39 33.21978 36.49970 11065 ft 361 kts 170°
2026-04-22 09:39 33.19478 36.50485 11673 ft 366 kts 173°
2026-04-22 09:39 33.16937 36.50901 12334 ft 371 kts 174°
2026-04-22 09:39 33.14362 36.51298 12985 ft 375 kts 174°
2026-04-22 09:40 33.11749 36.51721 13639 ft 380 kts 174°
2026-04-22 09:40 33.09117 36.52183 14225 ft 384 kts 173°
2026-04-22 09:40 33.06497 36.52676 14805 ft 388 kts 173°
2026-04-22 09:40 33.03813 36.53200 15377 ft 391 kts 173°
2026-04-22 09:41 33.01109 36.53656 15965 ft 394 kts 175°
2026-04-22 09:41 32.98372 36.54001 16558 ft 397 kts 177°
2026-04-22 09:41 32.95598 36.54276 17160 ft 400 kts 178°
2026-04-22 09:41 32.92805 36.54521 17791 ft 404 kts 178°
2026-04-22 09:42 32.89993 36.54769 18403 ft 408 kts 178°
2026-04-22 09:42 32.87149 36.55034 18970 ft 411 kts 178°
2026-04-22 09:42 32.84288 36.55316 19523 ft 414 kts 178°
2026-04-22 09:42 32.81405 36.55614 20085 ft 417 kts 178°
2026-04-22 09:43 32.78508 36.55925 20628 ft 420 kts 178°
2026-04-22 09:43 32.75624 36.56238 21138 ft 423 kts 178°
2026-04-22 09:43 32.72688 36.56555 21630 ft 425 kts 178°
2026-04-22 09:43 32.69688 36.56884 22116 ft 428 kts 177°
2026-04-22 09:44 32.66750 36.57244 22586 ft 431 kts 177°
2026-04-22 09:44 32.63757 36.57641 22963 ft 434 kts 176°
2026-04-22 09:44 32.60745 36.58053 23050 ft 440 kts 176°
2026-04-22 09:44 32.57654 36.58476 23055 ft 452 kts 176°
2026-04-22 09:45 32.54500 36.58903 23058 ft 459 kts 176°
2026-04-22 09:45 32.51312 36.59328 23056 ft 460 kts 176°
2026-04-22 09:45 32.48158 36.59741 23056 ft 460 kts 176°
2026-04-22 09:45 32.44970 36.60154 23055 ft 460 kts 177°
2026-04-22 09:46 32.41785 36.60567 23053 ft 460 kts 176°
2026-04-22 09:46 32.38601 36.60910 23049 ft 458 kts 181°
2026-04-22 09:46 32.35425 36.60707 23055 ft 454 kts 191°
2026-04-22 09:46 32.32359 36.59884 23055 ft 450 kts 201°
2026-04-22 09:47 32.29476 36.58485 23051 ft 446 kts 210°
2026-04-22 09:47 32.26826 36.56587 23054 ft 444 kts 216°
2026-04-22 09:47 32.24287 36.54596 23047 ft 444 kts 216°
2026-04-22 09:47 32.21712 36.52592 23048 ft 444 kts 216°
2026-04-22 09:48 32.19129 36.50595 23043 ft 443 kts 216°
2026-04-22 09:48 32.16546 36.48600 23040 ft 443 kts 216°
2026-04-22 09:48 32.13965 36.46602 23037 ft 443 kts 216°
2026-04-22 09:48 32.11383 36.44599 23037 ft 443 kts 216°
2026-04-22 09:49 32.08823 36.42576 23037 ft 442 kts 219°
2026-04-22 09:49 32.06533 36.40177 23034 ft 439 kts 229°
2026-04-22 09:49 32.04682 36.37343 23043 ft 436 kts 239°
2026-04-22 09:49 32.03335 36.34211 23048 ft 434 kts 249°
2026-04-22 09:50 32.02487 36.30802 23055 ft 433 kts 259°
2026-04-22 09:50 32.02129 36.27278 23061 ft 433 kts 265°
2026-04-22 09:50 32.01852 36.23740 23068 ft 433 kts 265°
2026-04-22 09:50 32.01569 36.20260 23092 ft 417 kts 264°
2026-04-22 09:51 32.01285 36.16888 23101 ft 410 kts 264°
2026-04-22 09:51 32.00999 36.13546 23108 ft 409 kts 264°
2026-04-22 09:51 32.00714 36.10218 23112 ft 408 kts 264°
2026-04-22 09:51 32.00423 36.06889 23109 ft 408 kts 262°
2026-04-22 09:52 31.99921 36.03636 23110 ft 408 kts 259°
2026-04-22 09:52 31.99379 36.00354 23102 ft 408 kts 259°
2026-04-22 09:52 31.98845 35.97074 22165 ft 408 kts 259°
2026-04-22 09:52 31.98306 35.93739 20550 ft 413 kts 259°
2026-04-22 09:53 31.97774 35.90433 19668 ft 417 kts 259°
2026-04-22 09:53 31.97229 35.87085 18842 ft 416 kts 259°
2026-04-22 09:53 31.96678 35.83735 17964 ft 414 kts 259°
2026-04-22 09:53 31.96132 35.80419 17048 ft 410 kts 259°
2026-04-22 09:54 31.95589 35.77127 16145 ft 406 kts 259°
2026-04-22 09:54 31.95057 35.73907 15275 ft 395 kts 259°
2026-04-22 09:54 31.94545 35.70817 14434 ft 383 kts 259°
2026-04-22 09:54 31.94043 35.67792 13581 ft 370 kts 259°
2026-04-22 09:55 31.93557 35.64865 12657 ft 359 kts 259°
2026-04-22 09:55 31.93131 35.62014 11770 ft 348 kts 265°
2026-04-22 09:55 31.93123 35.59198 10888 ft 340 kts 272°
2026-04-22 09:55 31.93204 35.56456 10277 ft 327 kts 271°
2026-04-22 09:56 31.93276 35.53873 10086 ft 303 kts 274°
2026-04-22 09:56 31.93781 35.51580 9997 ft 284 kts 298°
2026-04-22 09:56 31.95025 35.49764 10004 ft 286 kts 313°
2026-04-22 09:56 31.96454 35.48135 10006 ft 286 kts 315°
2026-04-22 09:57 31.97899 35.46524 9895 ft 287 kts 315°
2026-04-22 09:57 31.99350 35.44906 9493 ft 287 kts 315°
2026-04-22 09:57 32.00797 35.43289 9104 ft 286 kts 315°
2026-04-22 09:57 32.02235 35.41676 8727 ft 285 kts 315°
2026-04-22 09:58 32.03673 35.40062 8339 ft 284 kts 315°
2026-04-22 09:58 32.05072 35.38462 7969 ft 284 kts 311°
2026-04-22 09:58 32.06139 35.36528 7604 ft 282 kts 296°
2026-04-22 09:58 32.07015 35.34455 7232 ft 283 kts 295°
2026-04-22 09:59 32.07880 35.32357 6870 ft 285 kts 295°
2026-04-22 09:59 32.08745 35.30255 6490 ft 281 kts 295°
2026-04-22 09:59 32.09578 35.28220 6105 ft 272 kts 295°
2026-04-22 09:59 32.10385 35.26241 5734 ft 264 kts 295°
2026-04-22 10:00 32.11166 35.24315 5361 ft 256 kts 295°
2026-04-22 10:00 32.11830 35.22667 5029 ft 249 kts 295°
2026-04-22 10:00 32.12572 35.20816 4633 ft 241 kts 295°
2026-04-22 10:00 32.13278 35.19047 4259 ft 236 kts 295°
2026-04-22 10:01 32.13967 35.17306 3999 ft 232 kts 295°
2026-04-22 10:01 32.14638 35.15601 3987 ft 230 kts 295°
2026-04-22 10:01 32.15289 35.13936 3983 ft 219 kts 295°
2026-04-22 10:01 32.15909 35.12351 3987 ft 208 kts 295°
2026-04-22 10:02 32.16509 35.10811 3981 ft 205 kts 295°
2026-04-22 10:02 32.17108 35.09279 3994 ft 205 kts 295°
2026-04-22 10:02 32.17505 35.07683 4047 ft 205 kts 273°
2026-04-22 10:02 32.17275 35.06050 3981 ft 195 kts 255°
2026-04-22 10:03 32.16940 35.04563 3971 ft 179 kts 256°
2026-04-22 10:03 32.16638 35.03215 3973 ft 163 kts 255°
2026-04-22 10:03 32.16355 35.01962 3981 ft 156 kts 255°
2026-04-22 10:03 32.16072 35.00696 3711 ft 164 kts 256°
2026-04-22 10:04 32.15606 34.99451 3404 ft 164 kts 236°
2026-04-22 10:04 32.14803 34.98538 3110 ft 160 kts 210°
2026-04-22 10:04 32.13868 34.97878 2848 ft 156 kts 209°
2026-04-22 10:04 32.12947 34.97250 2642 ft 151 kts 210°
2026-04-22 10:05 32.12033 34.96645 2428 ft 149 kts 209°
2026-04-22 10:05 32.11130 34.96055 2217 ft 147 kts 210°
2026-04-22 10:05 32.10228 34.95469 2044 ft 149 kts 210°
2026-04-22 10:05 32.09315 34.94876 1846 ft 151 kts 211°
2026-04-22 10:06 32.08411 34.94291 1619 ft 149 kts 211°
2026-04-22 10:06 32.07505 34.93705 1436 ft 148 kts 211°
2026-04-22 10:06 32.06611 34.93125 1235 ft 146 kts 212°
2026-04-22 10:06 32.05715 34.92545 1030 ft 147 kts 212°
2026-04-22 10:07 32.04807 34.91959 847 ft 150 kts 211°
2026-04-22 10:07 32.03900 34.91373 629 ft 148 kts 213°
2026-04-22 10:07 32.02988 34.90784 425 ft 151 kts 212°
2026-04-22 10:07 32.02067 34.90201 240 ft 149 kts 212°
2026-04-22 10:08 32.01220 34.89643 125 ft 129 kts 212°
2026-04-22 10:08 32.00633 34.89256 118 ft 55 kts 208°
2026-04-22 10:08 32.00363 34.89081 119 ft 41 kts 209°
2026-04-22 10:08 32.00162 34.88872 118 ft 31 kts 241°
2026-04-22 10:09 32.00108 34.88772 118 ft 19 kts 238°
2026-04-22 10:09 32.00094 34.88647 118 ft 0 kts 299°
2026-04-22 10:11 32.00098 34.88638 119 ft 4 kts 299°
2026-04-22 10:11 32.00122 34.88592 118 ft 9 kts 301°
2026-04-22 10:11 32.00161 34.88517 119 ft 13 kts 301°
2026-04-22 10:11 32.00215 34.88414 118 ft 16 kts 301°
2026-04-22 10:12 32.00282 34.88287 117 ft 20 kts 302°
2026-04-22 10:12 32.00359 34.88137 117 ft 23 kts 301°
2026-04-22 10:12 32.00441 34.87978 118 ft 21 kts 301°
2026-04-22 10:12 32.00484 34.87862 120 ft 12 kts 255°
2026-04-22 10:13 32.00413 34.87794 120 ft 15 kts 210°
2026-04-22 10:13 32.00325 34.87732 118 ft 15 kts 211°
2026-04-22 10:13 32.00249 34.87678 120 ft 14 kts 211°
2026-04-22 10:13 32.00211 34.87587 117 ft 15 kts 296°
2026-04-22 10:14 32.00251 34.87500 117 ft 10 kts 285°
2026-04-22 10:14 32.00256 34.87452 120 ft 4 kts 274°
2026-04-22 10:14 32.00258 34.87430 120 ft 3 kts 276°
2026-04-22 10:14 32.00259 34.87414 120 ft 3 kts 275°
2026-04-22 10:15 32.00260 34.87401 120 ft 0 kts 275°